[[{"header":{"parameterUnit":"m.s-1","parameterCategory":1,"la1":30.2991,"la2":30.254,"lo1":-89.0895,"lo2":-89.0444,"dy":0.0017,"dx":0.0017,"nx":28,"ny":28,"refTime":"2023-03-30T15:00:00:Z","depth":0,"parameterNumber":2,"parameterNumberName":"U-component_of_WINDS"},"data":[0,0,0,0,0,0,0,0,0,0,0,0,0,0,0,0,0,0,0,0,0,0,0,0,0,0,0,0,0,0,0,0,0,0,0,0,0,0,0,0,0,0,0,0,0,0,0,0,0,0,0,0,0,0,0,0,0,0,-1.2115,-1.2114,0,-1.2091,-1.2091,-1.2091,-1.2068,-1.2068,-1.2067,-1.2067,-1.2043,-1.2042,-1.2042,0,0,0,0,0,0,0,0,0,0,0,0,0,-1.214,-1.2139,-1.2115,-1.2114,-1.2114,-1.2091,-1.2091,-1.2091,-1.2068,-1.2068,-1.2067,-1.2067,-1.2043,-1.2042,-1.2042,0,0,0,0,0,0,0,0,0,0,0,0,0,-1.2124,-1.2139,-1.2115,-1.21,-1.2098,-1.2091,-1.2091,-1.2091,-1.2068,-1.2068,-1.2067,-1.2067,-1.2043,-1.2042,-1.2042,-1.2047,0,0,-1.204,-1.204,0,0,0,0,0,0,0,0,-1.2125,-1.2123,-1.2102,-1.2101,-1.2099,-1.2082,-1.2091,-1.2076,-1.2068,-1.208,-1.2067,-1.2067,-1.2056,-1.2054,-1.2051,-1.2046,-1.2045,-1.204,-1.204,-1.2039,-1.2039,0,0,0,0,0,0,0,-1.2126,-1.2124,-1.2105,-1.2102,-1.21,-1.2095,-1.2092,-1.2088,-1.2071,-1.2079,-1.2077,-1.2074,-1.2055,-1.2052,-1.205,-1.2045,-1.204,-1.2039,-1.2039,-1.2039,-1.2043,-1.2043,0,0,0,0,0,0,-1.2129,-1.2125,-1.2106,-1.2105,-1.2111,-1.2094,-1.2091,-1.2088,-1.2071,-1.2067,-1.2075,-1.2073,-1.2053,-1.2051,-1.2049,-1.2054,-1.2039,-1.2039,-1.2039,-1.2043,-1.2043,-1.2044,0,0,0,0,0,0,-1.213,-1.2128,-1.2107,-1.2114,-1.2111,-1.2095,-1.2091,-1.2088,-1.2084,-1.2068,-1.2064,-1.2074,-1.2052,-1.205,-1.2048,-1.2053,-1.2039,-1.2038,-1.2042,-1.2043,-1.2043,-1.2064,0,0,0,0,0,0,-1.2131,-1.2128,-1.213,-1.2114,-1.2111,-1.2106,-1.2091,-1.2088,-1.2083,-1.2081,-1.2066,-1.2064,-1.2052,-1.2049,-1.2047,-1.2052,-1.2038,-1.2041,-1.2042,-1.2043,-1.2063,-1.2065,-1.2068,0,0,0,0,0,-1.2132,-1.2136,-1.213,-1.2128,-1.2113,-1.2106,-1.2104,-1.2091,-1.2084,-1.2085,-1.2075,-1.2064,-1.2053,-1.2049,-1.2047,-1.2051,-1.2041,-1.2042,-1.2043,-1.2062,-1.2065,-1.2068,0,0,0,0,0,0,-1.2152,-1.2134,-1.2127,-1.2127,-1.2119,-1.2103,-1.2104,-1.2095,-1.2088,-1.2086,-1.207,-1.2066,-1.2066,-1.2059,-1.2054,-1.2056,-1.2045,-1.2046,-1.206,-1.2063,-1.2066,-1.2067,-1.2037,0,0,0,0,0,-1.2157,-1.2154,-1.2138,-1.214,-1.2136,-1.2121,-1.2118,-1.2108,-1.2098,-1.2095,-1.2084,-1.2075,-1.2069,-1.2066,-1.206,-1.2062,-1.2058,-1.2064,-1.2067,-1.2069,-1.2069,-1.207,-1.2072,-1.2047,-1.2047,-1.2047,0,0,-1.2167,-1.2156,-1.2155,-1.2144,-1.2136,-1.2132,-1.2118,-1.2115,-1.2112,-1.2094,-1.2091,-1.2083,-1.2072,-1.2072,-1.2072,-1.2066,-1.2076,-1.207,-1.2072,-1.2071,-1.2071,-1.2073,-1.2075,-1.2048,-1.2047,-1.2047,0,0,-1.2182,-1.2174,-1.2174,-1.2167,-1.2156,-1.2146,-1.2146,-1.2132,-1.2126,-1.2123,-1.211,-1.2107,-1.2097,-1.209,-1.2085,-1.2099,-1.2088,-1.2098,-1.2109,-1.211,-1.2112,-1.2114,-1.2118,-1.212,-1.2098,-1.2098,-1.2098,0,-1.2195,-1.2189,-1.2176,-1.2174,-1.2169,-1.2153,-1.2154,-1.2147,-1.2135,-1.2132,-1.2126,-1.2114,-1.2106,-1.2104,-1.2107,-1.2104,-1.2103,-1.2099,-1.2113,-1.2114,-1.2116,-1.212,-1.2121,-1.21,-1.2099,-1.2099,-1.2099,0,-1.2206,-1.2202,-1.2204,-1.2192,-1.2188,-1.2187,-1.2174,-1.2171,-1.2162,-1.2153,-1.215,-1.214,-1.2131,-1.2131,-1.2122,-1.2127,-1.2124,-1.2116,-1.2105,-1.2119,-1.2123,-1.2124,-1.2101,-1.2101,-1.21,-1.21,0,0,-1.2233,-1.2214,-1.2215,-1.221,-1.2196,-1.2193,-1.2192,-1.2184,-1.2182,-1.2174,-1.2172,-1.2165,-1.2158,-1.2152,-1.2143,-1.2144,-1.2155,-1.2135,-1.2135,-1.2138,-1.216,-1.2165,-1.2167,-1.2148,-1.2149,-1.2149,-1.216,0,-1.2245,-1.2241,-1.223,-1.223,-1.2226,-1.2212,-1.221,-1.2202,-1.2194,-1.219,-1.2181,-1.2176,-1.2166,-1.2163,-1.2163,-1.2153,-1.2159,-1.2152,-1.2146,-1.2146,-1.2148,-1.2169,-1.2175,-1.2187,-1.2162,-1.2162,-1.2162,0,-1.2259,-1.2252,-1.2252,-1.2239,-1.2237,-1.2236,-1.2228,-1.2225,-1.2215,-1.2209,-1.2204,-1.2193,-1.2191,-1.2182,-1.2178,-1.2175,-1.2171,-1.2166,-1.2166,-1.2164,-1.2154,-1.2167,-1.219,-1.2192,-1.2164,-1.2164,-1.2164,0,-1.2278,-1.2269,-1.2267,-1.2263,-1.2249,-1.2248,-1.2242,-1.2232,-1.2228,-1.2222,-1.2219,-1.2212,-1.2208,-1.2203,-1.2191,-1.2185,-1.2189,-1.2179,-1.2183,-1.2184,-1.2184,-1.2184,-1.2206,-1.2183,-1.2183,-1.2183,-1.2183,0,-1.2292,-1.2293,-1.2276,-1.2275,-1.2274,-1.2261,-1.2261,-1.2254,-1.2246,-1.2243,-1.223,-1.2228,-1.2213,-1.2209,-1.22,-1.2198,-1.2197,-1.2192,-1.2189,-1.2192,-1.2193,-1.2189,-1.2187,-1.2184,-1.2184,-1.2184,-1.2184,0,-1.2313,-1.2301,-1.2299,-1.2285,-1.2282,-1.2283,-1.2271,-1.227,-1.2261,-1.2258,-1.2256,-1.2243,-1.2238,-1.2226,-1.2217,-1.2211,-1.2212,-1.2207,-1.2215,-1.2213,-1.2218,-1.2217,-1.2237,-1.2239,-1.2217,-1.2217,-1.2217,0,-1.2322,-1.2322,-1.2309,-1.2306,-1.2301,-1.2297,-1.2293,-1.228,-1.2277,-1.2266,-1.2266,-1.226,-1.2254,-1.2247,-1.2236,-1.223,-1.2225,-1.2232,-1.2223,-1.2227,-1.2224,-1.2224,-1.2223,-1.2234,-1.2234,-1.2234,-1.2235,0,-1.234,-1.2335,-1.233,-1.2323,-1.2319,-1.2313,-1.2306,-1.2305,-1.229,-1.2287,-1.2282,-1.2277,-1.2269,-1.2263,-1.2255,-1.2249,-1.2239,-1.2238,-1.2238,-1.2241,-1.2245,-1.2242,-1.2219,-1.2237,-1.2237,-1.2236,-1.2236,-1.2236,-1.2355,-1.2354,-1.2345,-1.234,-1.2334,-1.2328,-1.2326,-1.2317,-1.2312,-1.2305,-1.2298,-1.2293,-1.2284,-1.2272,-1.2267,-1.2263,-1.2258,-1.2259,-1.2259,-1.2259,-1.226,-1.2246,-1.2261,-1.2261,-1.2261,-1.2261,-1.2261,0,-1.2372,-1.2366,-1.2361,-1.2352,-1.2348,-1.234,-1.2332,-1.233,-1.2326,-1.2318,-1.2313,-1.2307,-1.2301,-1.2291,-1.2284,-1.2283,-1.2278,-1.2281,-1.2281,-1.2279,-1.2265,-1.2265,-1.2285,-1.2285,-1.2285,-1.2285,-1.2285,-1.2285,-1.238,-1.2378,-1.2372,-1.2367,-1.236,-1.2356,-1.2352,-1.2346,-1.234,-1.2334,-1.2329,-1.2323,-1.2314,-1.2307,-1.2301,-1.2298,-1.2296,-1.23,-1.2296,-1.2283,-1.2281,-1.2278,-1.2278,-1.23,-1.23,-1.231,-1.231,-1.231]},{"header":{"parameterUnit":"m.s-1","parameterCategory":1,"la1":30.2991,"la2":30.254,"lo1":-89.0895,"lo2":-89.0444,"dy":0.0017,"dx":0.0017,"nx":28,"ny":28,"refTime":"2023-03-30T15:00:00:Z","depth":0,"parameterNumber":3,"parameterNumberName":"V-component_of_WINDS"},"data":[0,0,0,0,0,0,0,0,0,0,0,0,0,0,0,0,0,0,0,0,0,0,0,0,0,0,0,0,0,0,0,0,0,0,0,0,0,0,0,0,0,0,0,0,0,0,0,0,0,0,0,0,0,0,0,0,0,0,4.8622,4.8622,0,4.8635,4.8635,4.8635,4.86,4.8599,4.8598,4.8597,4.8608,4.8609,4.861,0,0,0,0,0,0,0,0,0,0,0,0,0,4.8566,4.8568,4.8622,4.8622,4.8623,4.8635,4.8635,4.8635,4.86,4.8599,4.8598,4.8596,4.8607,4.8609,4.8611,0,0,0,0,0,0,0,0,0,0,0,0,0,4.8586,4.8568,4.8622,4.8607,4.8605,4.8635,4.8635,4.8635,4.8601,4.8599,4.8597,4.8596,4.8607,4.8609,4.8611,4.8655,0,0,4.8617,4.8618,0,0,0,0,0,0,0,0,4.8585,4.8588,4.8609,4.8608,4.8607,4.8614,4.8619,4.8642,4.8601,4.8602,4.8597,4.8595,4.8611,4.8613,4.8618,4.8655,4.8656,4.8617,4.8618,4.8619,4.8619,0,0,0,0,0,0,0,4.8584,4.8587,4.8627,4.8609,4.8608,4.8599,4.86,4.8623,4.8616,4.8602,4.86,4.8602,4.861,4.8617,4.8618,4.8656,4.8617,4.8619,4.862,4.862,4.873,4.8732,0,0,0,0,0,0,4.8585,4.8586,4.8627,4.8627,4.8592,4.8601,4.8602,4.8613,4.8615,4.8614,4.8603,4.86,4.8614,4.8616,4.8619,4.8671,4.8619,4.8621,4.8622,4.8728,4.873,4.8732,0,0,0,0,0,0,4.8583,4.8588,4.8626,4.8606,4.861,4.8604,4.8617,4.8614,4.8621,4.8616,4.8614,4.8611,4.8613,4.8616,4.8646,4.8671,4.8622,4.8623,4.8726,4.8729,4.8731,4.8775,0,0,0,0,0,0,4.8582,4.8588,4.8605,4.8607,4.8612,4.8654,4.8618,4.8616,4.8625,4.8621,4.8623,4.8622,4.8612,4.8644,4.8648,4.8672,4.8625,4.8724,4.8727,4.8731,4.8772,4.8779,4.8785,0,0,0,0,0,4.858,4.8617,4.8606,4.8612,4.8633,4.8656,4.8658,4.8647,4.8627,4.8644,4.864,4.8622,4.8667,4.8647,4.8652,4.8677,4.8722,4.8726,4.873,4.8768,4.8778,4.8785,0,0,0,0,0,0,4.8617,4.8617,4.8605,4.8644,4.865,4.865,4.8671,4.8656,4.8668,4.8664,4.8648,4.8649,4.8682,4.8683,4.866,4.872,4.8691,4.8697,4.8719,4.8727,4.8734,4.8733,4.8626,0,0,0,0,0,4.863,4.8649,4.8647,4.8681,4.8685,4.8678,4.8687,4.8678,4.8683,4.8686,4.8685,4.8691,4.8706,4.8717,4.8731,4.8771,4.8771,4.8791,4.8798,4.8804,4.8808,4.883,4.8839,4.8745,4.8745,4.8745,0,0,4.8657,4.8659,4.8671,4.8689,4.8693,4.8713,4.868,4.8702,4.8717,4.8689,4.8718,4.8717,4.8723,4.8759,4.8774,4.876,4.8834,4.8809,4.8813,4.8815,4.8835,4.8844,4.8852,4.8748,4.8747,4.8747,0,0,4.8715,4.8718,4.8747,4.8752,4.8759,4.8753,4.876,4.8763,4.8761,4.879,4.877,4.8786,4.8814,4.8818,4.8824,4.8885,4.8869,4.889,4.8926,4.8948,4.8955,4.8961,4.8983,4.8991,4.8895,4.8895,4.8895,0,4.8747,4.8776,4.8764,4.8788,4.8796,4.8772,4.8801,4.8806,4.8817,4.8823,4.8807,4.8841,4.8842,4.8879,4.8894,4.89,4.8907,4.889,4.8955,4.8961,4.8967,4.8988,4.8996,4.8897,4.8897,4.8897,4.8897,0,4.8815,4.8836,4.8858,4.887,4.8881,4.8907,4.8898,4.891,4.89,4.8896,4.8926,4.8928,4.8942,4.895,4.8939,4.8985,4.8976,4.8958,4.8929,4.8979,4.8998,4.9006,4.8901,4.89,4.8899,4.8899,0,0,4.8897,4.8902,4.891,4.8916,4.8921,4.8937,4.8962,4.8977,4.8987,4.8996,4.9016,4.904,4.9023,4.903,4.902,4.9039,4.9087,4.9018,4.9018,4.9031,4.9138,4.9152,4.9161,4.9076,4.9077,4.9079,4.9137,0,4.8954,4.8998,4.8988,4.9031,4.905,4.9028,4.905,4.9056,4.9053,4.9068,4.9065,4.9082,4.9059,4.9063,4.908,4.9077,4.9108,4.9073,4.9095,4.9096,4.9094,4.9171,4.9185,4.9241,4.9145,4.9146,4.9147,0,4.9028,4.904,4.9085,4.9088,4.9096,4.9116,4.9128,4.9143,4.9149,4.9146,4.9154,4.914,4.9165,4.9136,4.9169,4.9145,4.9153,4.9153,4.9155,4.9157,4.9124,4.9175,4.9258,4.9266,4.9158,4.9157,4.9156,0,4.9083,4.911,4.9141,4.9146,4.9151,4.9165,4.9168,4.9172,4.9181,4.9192,4.9198,4.9211,4.9219,4.9229,4.9219,4.9199,4.9254,4.9224,4.9252,4.9252,4.9264,4.9264,4.9351,4.927,4.927,4.9269,4.9269,0,4.9149,4.9177,4.9166,4.9185,4.9217,4.9204,4.9235,4.9235,4.9239,4.9257,4.9239,4.9256,4.9242,4.9258,4.9251,4.9279,4.9283,4.928,4.9278,4.9282,4.9283,4.9287,4.9283,4.9272,4.9271,4.9271,4.927,0,4.9216,4.921,4.9242,4.9244,4.9245,4.9268,4.9269,4.9286,4.9282,4.9306,4.931,4.9304,4.9322,4.9313,4.9331,4.9326,4.9364,4.9356,4.9362,4.936,4.9388,4.9386,4.9481,4.9493,4.9405,4.9405,4.9406,0,4.9259,4.928,4.9285,4.9296,4.93,4.9318,4.9328,4.9316,4.9327,4.9336,4.9352,4.9368,4.9381,4.941,4.9407,4.9421,4.9414,4.9446,4.9416,4.9419,4.9414,4.9413,4.9415,4.9452,4.9453,4.9454,4.9455,0,4.9335,4.9331,4.9346,4.936,4.9373,4.9383,4.9392,4.9402,4.9391,4.9404,4.9423,4.9432,4.9452,4.9468,4.948,4.9482,4.9467,4.9465,4.9472,4.9476,4.9479,4.9478,4.9379,4.9462,4.9462,4.9461,4.9461,4.946,4.9391,4.9409,4.9415,4.9433,4.9439,4.9448,4.9464,4.9463,4.9478,4.9493,4.9485,4.9507,4.9512,4.9527,4.9531,4.9547,4.9534,4.9545,4.9547,4.955,4.9554,4.9476,4.9549,4.9549,4.9549,4.9549,4.9549,0,4.9466,4.9469,4.9486,4.9499,4.9513,4.9498,4.9507,4.952,4.9539,4.9546,4.9559,4.958,4.9596,4.9594,4.9608,4.9622,4.9615,4.9626,4.9625,4.9626,4.9565,4.9557,4.9631,4.9631,4.9631,4.9631,4.9631,4.9631,4.9507,4.9537,4.9534,4.9567,4.957,4.9591,4.9598,4.9606,4.9611,4.9636,4.9649,4.9648,4.9651,4.9666,4.968,4.9679,4.9685,4.9699,4.9695,4.9638,4.963,4.9622,4.9615,4.97,4.97,4.9755,4.9755,4.9756]}]]